Regional Weather Roundup
Issued by NWS

Home | Current Version | Previous Version | Graphics & Text | Print | Product List | Glossary Off
Versions: 1 2 3 4 5 6 7 8 9 10 11 12 13 14 15 16 17 18 19 20 21 22 23 24 25 26 27 28 29 30 31 32 33 34 35 36 37 38 39 40 41 42 43 44 45 46 47 48 49 50

000
ASUS43 KDTX 281510
RWRMI
MICHIGAN HOURLY REGIONAL WEATHER ROUNDUP
NATIONAL WEATHER SERVICE DETROIT/PONTIAC MI
1000 AM EST WED JAN 28 2015

NOTE: "FAIR" INDICATES FEW OR NO CLOUDS BELOW 12,000 FEET WITH NO
SIGNIFICANT WEATHER AND/OR OBSTRUCTION TO VISIBILITY.

MIZ047>049-052>055-059>063-066>070-074>076-081>083-281600-
SOUTHEAST LOWER MICHIGAN

CITY           SKY/WX    TMP DP  RH WIND       PRES   REMARKS
ADRIAN         MOSUNNY   16  13  88 CALM      30.35F
ALMA           MOSUNNY   16  12  83 CALM      30.31S
ANN ARBOR      SUNNY     19  14  81 CALM      30.34S
BAD AXE        MOSUNNY   11   8  85 CALM      30.32F
DETROIT CITY   SUNNY     20  12  71 CALM      30.35F
DETROIT        MOSUNNY   21  13  71 CALM      30.37S
FLINT          MOSUNNY   17  12  80 SE5       30.32F
GROSSE ILE     SUNNY     18  12  79 CALM      30.35S
HILLSDALE      MOSUNNY   19  15  82 CALM      30.30F
HOWELL         SUNNY     17  14  88 S5        30.31F

CITY           SKY/WX    TMP DP  RH WIND       PRES   REMARKS
JACKSON        SUNNY     20  14  77 S3        30.31F
LAMBERTVILLE   SUNNY     19  14  79 CALM      30.36S
LANSING        SUNNY     20  13  74 S5        30.31F
LAPEER         NOT AVBL
MASON          SUNNY     17  11  77 S6        30.31S
MONROE         SUNNY     18  12  79 CALM      30.35S
MT. CLEMENS    MOSUNNY   18  10  70 CALM      30.32F
PONTIAC        MOSUNNY   16  12  84 CALM      30.31F
PORT HOPE        N/A     18  10  71 SW5       30.31
PORT HURON     SUNNY     14   9  79 CALM      30.34F
TRI CITIES     SUNNY     18  12  77 S5        30.32F
YPSILANTI      SUNNY     23  15  71 CALM      30.36R
$$
MIZ043>046-050>051-056>058-064>065-071>073-077>080-281600-
SOUTHWEST LOWER MICHIGAN

CITY           SKY/WX    TMP DP  RH WIND       PRES   REMARKS
BATTLE CREEK   SUNNY     21  11  65 S8        30.31S
BENTON HARBOR  MOSUNNY   22  14  71 S7        30.30F
BIG RAPIDS     MOSUNNY    8   4  85 CALM      30.27S
COLDWATER      MOSUNNY   19  12  76 S6        30.31F
HOLLAND        MOSUNNY   22  13  68 S8        30.30F
GRAND RAPIDS   PTSUNNY   20  13  74 S9        30.30S
KALAMAZOO      SUNNY     19  12  74 S9        30.31S
MARSHALL       SUNNY     19  12  73 S3        30.31S
MUSKEGON       PTSUNNY   22  12  65 SE9       30.29F
$$
MIZ016>042-281600-
NORTHERN LOWER MICHIGAN

CITY           SKY/WX    TMP DP  RH WIND       PRES   REMARKS
ALPENA         MOSUNNY    7   3  84 CALM      30.30
BEAVER ISLAND  CLOUDY    23  19  86 CALM      30.25S
BELLAIRE       MOSUNNY   10   6  83 CALM      30.28F
CADILLAC       MOSUNNY    6  -1  73 CALM      30.23S
CHARLEVOIX     SUNNY     11   6  79 SE5       30.29S
FRANKFORT      MOSUNNY   21   7  55 SE6       30.26F
GAYLORD        MOSUNNY    4   0  83 CALM      30.22F
GRAYLING       MOSUNNY    1  -5  77 CALM      30.25F
HARBOR SPRINGS MOSUNNY    8   0  72 E5        30.26S
HOUGHTON LAKE  MOSUNNY    8   2  76 CALM      30.27S
MANISTEE       MOSUNNY   10   5  79 E7        30.27F
OSCODA         MOSUNNY   10   2  72 CALM      30.31S
PELLSTON       MOSUNNY    0  -5  79 CALM      30.27F
TRAVERSE CITY  MOSUNNY   13   6  74 CALM      30.26F
$$
MIZ007>008-015-281600-
EASTERN UPPER MICHIGAN

CITY           SKY/WX    TMP DP  RH WIND       PRES   REMARKS
KINROSS        MOSUNNY   10   3  72 CALM      30.25S
MACKINAC ISLAN MOSUNNY   19   1  43 S6        30.25F
NEWBERRY       CLOUDY    16  13  87 S7        30.22S
S. S. MARIE    MOSUNNY    5  -2  72 E6        30.27R
$$
MIZ004>006-011>014-085-281600-
CENTRAL UPPER MICHIGAN

CITY           SKY/WX    TMP DP  RH WIND       PRES   REMARKS
MANISTIQUE     CLOUDY    26  21  83 S8        30.22F
ESCANABA       CLOUDY    23  18  80 S9        30.22F
MENOMINEE      MOSUNNY   25  18  74 SW10      30.22S
SAWYER-GWINN   MOSUNNY   21  16  79 SW12      30.14S
$$
MIZ001>003-009>011-084-281600-
WESTERN UPPER MICHIGAN

CITY           SKY/WX    TMP DP  RH WIND       PRES   REMARKS
IRON MOUNTAIN  CLOUDY    22  17  81 S9        30.15R
HOUGHTON       CLOUDY    25  19  78 S10       30.08S
COPPER HARBOR    N/A     28  21  75 CALM      30.11F
IRONWOOD       CLOUDY    25  23  93 S8        29.99F
$$

ABBREVIATIONS USED IN REMARKS
   TC - TEMPERATURE IN CELSIUS
  WCI - WIND CHILL INDEX
   HX - HEAT INDEX
  VSB - VISIBILITY



USA.gov is the U.S. government's official web portal to all federal, state and local government web resources and services.